Flag for Austria Weather past 2 weeks in Bruck an der Mur, Styria, Austria

Now
37 °F

Passing clouds.


Feels Like: 29 °F
Forecast: 28 / 45 °F
Wind: 13 mph from Southwest

Location: Zeltweg

Current Time: Mar 2, 2015 at 6:38:28 AM

Latest Report: Mar 2, 2015 at 5:50 AM


Visibility: 6 mi

Pressure: 29.77 "Hg

Humidity: 75%

Dew point: 30 °F

Location of Bruck an der MurLocation

Historic Weather in Bruck an der Mur — Graph

°F

Bruck an der Mur temperature yesterday

Maximum temperature yesterday: 46 °F (at 1:50 PM)
Minimum temperature yesterday: 28 °F (at 6:50 AM)
Average temperature yesterday: 40 °F

Past Weeks' High & Low Weather Summary

 TemperatureHumidityPressure
High48 °F (Feb 27, 2:50 PM)100% (Feb 15, 7:50 AM)30.66 "Hg (Feb 15, 7:50 AM)
Low16 °F (Feb 19, 4:50 AM)34% (Feb 20, 2:50 PM)29.56 "Hg (Feb 23, 1:50 PM)
Average35 °F75%30.01 "Hg
* Reported Feb 14 9:50 PM — Mar 1 9:50 PM, Bruck an der Mur, Weather by CustomWeather, © 2015

Note: Actual official high and low records may vary slightly from our data, if they occured in-between our weather recording intervals... More about our weather records

Advertising

Bruck an der Mur weather history for previous 24 hours

 ConditionsComfort  
Time TempWeatherWind HumidityBarometerVisibility
9:50 PM
Sun, Mar 1
41 °FOvercast.No wind70%29.86 "Hg6 mi
8:50 PM43 °FLight rain. Overcast.7 mph66%29.86 "Hg6 mi
7:50 PM43 °FPassing clouds.8 mph61%29.83 "Hg6 mi
6:50 PM43 °FPassing clouds.8 mph61%29.83 "Hg6 mi
5:50 PM45 °FPassing clouds.8 mph57%29.83 "Hg12 mi
4:50 PM46 °FPartly sunny.8 mph53%29.83 "Hg12 mi
3:50 PM46 °FPartly sunny.7 mph53%29.83 "Hg12 mi
2:50 PM46 °FPartly sunny.8 mph50%29.83 "Hg12 mi
1:50 PM46 °FPartly sunny.8 mph50%29.86 "Hg12 mi
12:50 PM45 °FOvercast.7 mph53%29.86 "Hg12 mi
11:50 AM43 °FPartly sunny.8 mph57%29.89 "Hg12 mi
10:50 AM43 °FBroken clouds.5 mph61%29.89 "Hg12 mi
9:50 AM36 °FPartly sunny.No wind81%29.92 "Hg12 mi
8:50 AM34 °FPartly sunny.3 mph81%29.92 "Hg12 mi
7:50 AM30 °FPartly sunny.No wind93%29.95 "Hg12 mi
6:50 AM28 °FScattered clouds.1 mph93%29.95 "Hg9 mi
Weather by CustomWeather, © 2015

See weather overviewHow to use our weather pages